Regional Weather Roundup
Issued by NWS

Home | Current Version | Previous Version | Text Only | Print | Product List | Glossary Off
Versions: 1 2 3 4 5 6 7 8 9 10 11 12 13 14 15 16 17 18 19 20 21 22 23 24 25 26 27 28 29 30 31 32 33 34 35 36 37 38 39 40 41 42 43 44 45 46 47 48 49 50

000
ASUS44 KOUN 270910
RWROK

WEATHER ROUNDUP FOR OKLAHOMA
NATIONAL WEATHER SERVICE NORMAN OK
400 AM CDT WED MAY 27 2015

NOTE: "FAIR" INDICATES FEW OR NO CLOUDS BELOW 12,000 FEET WITH NO
      SIGNIFICANT WEATHER AND/OR OBSTRUCTIONS TO VISIBILITY.

OKZ001>007-009>012-014-015-017-271000-
NORTHWEST OKLAHOMA AND THE PANHANDLE

CITY           SKY/WX    TMP DP  RH WIND       PRES   REMARKS
GAGE           MOCLDY    59  56  89 CALM      30.02R
GUYMON         LGT RAIN  63  59  87 NW7       30.06R
ENID/WOODRING  PTCLDY    61  59  94 S3        29.99R
$$

OKZ016-021>023-033>039-044-045-271000-
SOUTHWEST OKLAHOMA

CITY           SKY/WX    TMP DP  RH WIND       PRES   REMARKS
LAWTON/REGL    CLEAR     62  60  93 E7        30.00R
LAWTON/FT SILL CLEAR     63  60  91 VRB5      29.99R
FREDERICK      CLEAR     62  60  93 S6        29.97R
CLINTON        PTCLDY    62  58  86 CALM      30.02R
HOBART         CLEAR     58  57  97 NE9       30.00R
ALTUS AFB      CLEAR     58  58  99 CALM      29.98R
$$

OKZ018>020-024>031-271000-
CENTRAL OKLAHOMA

CITY           SKY/WX    TMP DP  RH WIND       PRES   REMARKS
OKLAHOMA CITY  PTCLDY    64  61  90 CALM      30.02R
OKC/WILEY POST PTCLDY    66  64  93 CALM      30.01R
OKC/TINKER AFB PTCLDY    66  64  94 SE5       30.00R
STILLWATER     MOCLDY    63  61  93 E5        30.01R
GUTHRIE        PTCLDY    65  64  97 CALM      30.00S FOG
$$

OKZ008-013-054>072-271000-
NORTHEAST OKLAHOMA

CITY           SKY/WX    TMP DP  RH WIND       PRES   REMARKS
TULSA          CLOUDY    68  64  87 S8        29.99S
TULSA/JONES    MOCLDY    68  65  90 SW6       30.00F
PONCA CITY     PTCLDY    61  58  90 SE7       30.01R
BARTLESVILLE   MOCLDY    63  63 100 CALM      30.02R
MUSKOGEE       CLOUDY    63  58  83 CALM      30.02R
$$

OKZ032-040>043-046>053-073>077-271000-
SOUTH CENTRAL/SOUTHEAST OKLAHOMA

CITY           SKY/WX    TMP DP  RH WIND       PRES   REMARKS
ARDMORE/DWNTWN CLOUDY    66  57  72 S6        30.00R
MCALESTER      CLOUDY    70  68  93 CALM      30.02R
$$



USA.gov is the U.S. government's official web portal to all federal, state and local government web resources and services.